Weather History for Buenos Aires, Argentina

Change the Weather History Date:

Monday, December 2, 2013

  Actual Average Record
Temperature  
Mean Temperature 80 °F -  
Max Temperature 90 °F 81 °F 90 °F (2013)
Min Temperature 71 °F 66 °F 55 °F (2008)
Cooling Degree Days 16    
Growing Degree Days 30 (Base 50)    
Moisture  
Dew Point 68 °F    
Average Humidity 68    
Maximum Humidity 88    
Minimum Humidity 39    
Precipitation  
Precipitation 0.04 in 0.13 in - ()
Sea Level Pressure  
Sea Level Pressure 29.74 in    
Wind  
Wind Speed 8 mph ()    
Max Wind Speed 46 mph    
Max Gust Speed 58 mph    
Visibility 5.7 miles    
Events Rain , Thunderstorm    
Averages and records for this station are not official NWS values.
T = Trace of Precipitation, MM = Missing Value Source: Averaged Metar Reports

Daily Weather History Graph

Daily Weather History Graph

Search for Another Location

Airport:

Trip Planner

Search our weather history database for the weather conditions in past years. The results will help you decide how hot, cold, wet, or windy it might be!

Date:

Astronomy

Dec. 02, 2013 Rise Set
Actual Time 5:33 AM ART 7:52 PM ART
Civil Twilight 5:05 AM ART 8:21 PM ART
Nautical Twilight 4:29 AM ART 8:57 PM ART
Astronomical Twilight 3:50 AM ART 9:36 PM ART
Moon 5:13 AM ART (12/2) 7:35 PM ART (12/2)
Length of Visible Light 15h 16m
Length of Day
14h 18m
Waning Crescent, 0% of the Moon is Illuminated
Dec 2
Waning Crescent
Dec 2
New
Dec 9
First Quarter
Dec 17
Full
Dec 25
Last Quarter

Hourly Weather History & Observations

Time (ART) Temp. Heat Index Dew Point Humidity Pressure Visibility Wind Dir Wind Speed Gust Speed Precip Events Conditions
12:00 AM 74 °F - 69 °F 78% 29.82 in 6 mi ENE 6.9 mph - -  
12:00 AM 75.2 °F - 68.0 °F 78% 29.80 in - ENE 6.9 mph - N/A   Clear
1:00 AM 75.2 °F - 68.0 °F 78% 29.80 in - NE 4.6 mph - N/A   Clear
2:00 AM 75.2 °F - 68.0 °F 78% 29.77 in - NNE 4.6 mph - N/A   Clear
3:00 AM 75 °F - 69 °F 75% 29.77 in 6 mi NNE 4.6 mph - -  
3:00 AM 75.2 °F - 68.0 °F 78% 29.77 in - NNE 4.6 mph - N/A   Clear
4:00 AM 73.4 °F - 68.0 °F 83% 29.74 in - Calm Calm - N/A   Clear
5:00 AM 73.4 °F - 68.0 °F 83% 29.77 in - NNW 5.8 mph - N/A   Clear
6:00 AM 72 °F - 67 °F 81% 29.78 in 6 mi NW 3.5 mph - -  
6:00 AM 71.6 °F - 68.0 °F 88% 29.77 in - NW 3.5 mph - N/A   Clear
7:00 AM 75.2 °F - 68.0 °F 78% 29.80 in - NNW 5.8 mph - N/A   Clear
8:00 AM 73.4 °F - 66.2 °F 78% 29.80 in - North 8.1 mph - N/A   Clear
9:00 AM 75 °F - 68 °F 74% 29.81 in 6 mi NNW 10.4 mph - -  
9:00 AM 75.2 °F - 68.0 °F 78% 29.80 in - NNW 10.4 mph - N/A   Clear
10:00 AM 80.6 °F 84.6 °F 71.6 °F 74% 29.77 in - NNW 10.4 mph - N/A   Clear
11:00 AM 84.2 °F 87.3 °F 68.0 °F 58% 29.74 in - NW 11.5 mph - N/A   Clear
12:00 PM 85 °F - 71 °F 53% 29.75 in 6 mi NNW 11.5 mph - -   Scattered Clouds
12:00 PM 86.0 °F 90.4 °F 69.8 °F 58% 29.74 in 6.2 mi NNW 11.5 mph - N/A   Partly Cloudy
1:00 PM 86.0 °F 90.4 °F 69.8 °F 58% 29.71 in 6.2 mi North 9.2 mph - N/A   Partly Cloudy
2:00 PM 89.6 °F 94.7 °F 69.8 °F 52% 29.71 in 6.2 mi NNW 11.5 mph - N/A   Scattered Clouds
3:00 PM 86 °F - 73 °F 58% 29.68 in 6 mi North 11.5 mph - -   Partly Cloudy
3:00 PM 86.0 °F 93.4 °F 73.4 °F 66% 29.65 in 6.2 mi North 11.5 mph - N/A   Scattered Clouds
4:00 PM 87.8 °F 93.8 °F 71.6 °F 58% 29.65 in 6.2 mi North 15.0 mph - N/A   Scattered Clouds
5:00 PM 87.8 °F 92.6 °F 69.8 °F 55% 29.62 in 6.2 mi North 13.8 mph - N/A   Partly Cloudy
6:00 PM 86 °F - 64 °F 39% 29.61 in 6 mi NW 13.8 mph - -   Mostly Cloudy
6:00 PM 86.0 °F 87.3 °F 64.4 °F 48% 29.59 in 6.2 mi NW 13.8 mph - N/A   Mostly Cloudy
6:35 PM 82.4 °F 85.4 °F 68.0 °F 62% 29.71 in 0.9 mi WSW 46.0 mph 57.5 mph N/A Rain Heavy Rain
7:00 PM 73.4 °F - 64.4 °F 73% 29.74 in 5.0 mi WSW 17.3 mph - N/A Rain Light Rain
8:00 PM 73.4 °F - 62.6 °F 69% 29.71 in 6.2 mi South 4.6 mph - N/A   Mostly Cloudy
9:00 PM 76 °F - 64 °F 57% 29.75 in 5 mi West 13.8 mph - - Rain , Thunderstorm Thunderstorms and Rain
9:00 PM 75.2 °F - 64.4 °F 69% - 5.0 mi West 13.8 mph - N/A Rain , Thunderstorm Light Thunderstorms and Rain
10:00 PM 75.2 °F - 64.4 °F 69% 29.74 in - SW 9.2 mph - N/A   Clear
11:00 PM 75.2 °F - 64.4 °F 69% 29.77 in - SSW 11.5 mph - N/A   Clear